Flag for Germany Weather past 2 weeks in Garmisch-Partenkirchen, Bavaria, Germany

Now
57 °F

Passing clouds.


Feels Like: 57 °F
Forecast: 52 / 77 °F
Wind: 5 mph from West

Location: Innsbruck-Flughafen

Current Time: Sep 17, 2014 at 9:54:05 AM

Latest Report: Sep 17, 2014 at 9:20 AM


Visibility: N/A

Pressure: 30.01 "Hg

Humidity: 82%

Dew point: 52 °F

Location of Garmisch-PartenkirchenLocation

Historic Weather in Garmisch-Partenkirchen — Graph

°F

Garmisch-Partenkirchen temperature yesterday

Maximum temperature yesterday: 75 °F (at 2:20 PM)
Minimum temperature yesterday: 48 °F (at 6:20 AM)
Average temperature yesterday: 61 °F

Past Weeks' High & Low Weather Summary

 TemperatureHumidityPressure
High77 °F (Sep 6, 3:20 PM)100% (Sep 2, 11:50 PM)30.18 "Hg (Sep 2, 11:50 PM)
Low48 °F (Sep 16, 6:20 AM)36% (Sep 7, 4:50 PM)29.89 "Hg (Sep 6, 3:20 PM)
Average60 °F83%30.04 "Hg
* Reported Sep 2 8:20 AM — Sep 17 8:50 AM, Garmisch-Partenkirchen, Weather by CustomWeather, © 2014

Note: Actual official high and low records may vary slightly from our data, if they occured in-between our weather recording intervals... More about our weather records

Advertising

Garmisch-Partenkirchen weather history for previous 24 hours

 ConditionsComfort  
Time TempWeatherWind HumidityBarometerVisibility
8:50 AM
Sep 17
55 °FPassing clouds.3 mph88%30.01 "HgN/A
8:20 AM54 °FPassing clouds.No wind94%30.01 "HgN/A
7:50 AM50 °FPassing clouds.2 mph94%30.04 "HgN/A
7:20 AM50 °FPassing clouds.1 mph94%30.04 "HgN/A
6:50 AM48 °FPassing clouds.1 mph100%30.01 "HgN/A
6:20 AM48 °FPassing clouds.1 mph100%30.01 "HgN/A
5:50 AM50 °FPassing clouds.2 mph94%30.01 "HgN/A
5:20 AM52 °FPassing clouds.1 mph94%30.01 "HgN/A
4:50 AM52 °FPassing clouds.2 mph94%30.01 "HgN/A
4:20 AM52 °FPassing clouds.1 mph94%30.01 "HgN/A
3:50 AM52 °FPassing clouds.No wind94%30.01 "HgN/A
3:20 AM52 °FCool.1 mph94%30.01 "Hg4 mi
2:50 AM52 °FCool.2 mph94%30.01 "HgN/A
2:20 AM52 °FCool.1 mph94%30.01 "HgN/A
1:50 AM54 °FCool.1 mph88%30.01 "HgN/A
1:20 AM54 °FCool.2 mph94%30.01 "HgN/A
12:50 AM54 °FCool.3 mph94%30.04 "HgN/A
12:20 AM55 °FCool.3 mph88%30.04 "HgN/A
11:50 PM
Sep 16
55 °FCool.1 mph88%30.04 "HgN/A
11:20 PM57 °FCool.1 mph88%30.04 "HgN/A
10:50 PM57 °FPassing clouds.2 mph88%30.01 "HgN/A
10:20 PM57 °FPassing clouds.1 mph88%30.01 "HgN/A
9:50 PM59 °FPassing clouds.1 mph82%30.01 "HgN/A
9:20 PM61 °FPassing clouds.1 mph77%30.01 "HgN/A
8:50 PM61 °FPassing clouds.1 mph77%30.01 "HgN/A
8:20 PM64 °FPassing clouds.2 mph73%29.98 "HgN/A
7:50 PM64 °FScattered clouds.1 mph73%29.98 "HgN/A
7:20 PM68 °FScattered clouds.8 mph64%29.98 "HgN/A
6:50 PM70 °FScattered clouds.8 mph60%29.95 "HgN/A
6:20 PM72 °FScattered clouds.10 mph53%29.95 "HgN/A
5:50 PM73 °FScattered clouds.12 mph53%29.95 "HgN/A
5:20 PM73 °FScattered clouds.12 mph50%29.95 "HgN/A
4:50 PM75 °FScattered clouds.8 mph44%29.95 "HgN/A
4:20 PM75 °FScattered clouds.8 mph44%29.95 "HgN/A
3:50 PM75 °FScattered clouds.7 mph50%29.95 "HgN/A
3:20 PM75 °FScattered clouds.6 mph54%29.95 "HgN/A
2:50 PM75 °FScattered clouds.5 mph44%29.95 "HgN/A
2:20 PM75 °FScattered clouds.6 mph47%29.98 "HgN/A
1:50 PM73 °FScattered clouds.5 mph50%29.98 "HgN/A
1:20 PM72 °FScattered clouds.3 mph53%29.98 "HgN/A
12:50 PM72 °FScattered clouds.2 mph57%30.01 "HgN/A
12:20 PM68 °FScattered clouds.1 mph60%30.01 "HgN/A
11:50 AM66 °FScattered clouds.2 mph64%30.01 "HgN/A
11:20 AM64 °FScattered clouds.2 mph68%30.04 "HgN/A
10:50 AM63 °FScattered clouds.2 mph77%30.04 "HgN/A
10:20 AM61 °FScattered clouds.2 mph77%30.04 "HgN/A
9:50 AM57 °FScattered clouds.2 mph88%30.07 "HgN/A
9:20 AM57 °FScattered clouds.1 mph88%30.07 "HgN/A
Weather by CustomWeather, © 2014

See weather overviewHow to use our weather pages